Location: Andiroba
(19.8650°S, 43.9258°W)
Time: 00:22:30
(UTC+00:00)

COSMO-SKYMED 1 - Pass Details

Date: 15 June 2024
Orbit: 621 x 623 km, 97.9° (Epoch: 24 July)

Event Time Altitude Azimuth Distance (km) Brightness Sun altitude
Rises 08:53:22 0° 172° (S) 2,923 5.9 -8.4°
Reaches altitude 10° 08:55:35 10° 174° (S) 2,010 5.0 -7.9°
Maximum altitude 08:59:56 72° 257° (WSW) 661 2.5 -6.9°
Drops below altitude 10° 09:04:15 10° 341° (NNW) 1,989 5.2 -6.0°
Sets 09:06:26 0° 343° (NNW) 2,888 6.1 -5.5°
